Year,Month,Day,Hour,Minute,Value (Times are PST for temperature in C)
2007,06,26,00,00,11.90
2007,06,26,00,01,11.80
2007,06,26,00,02,11.80
2007,06,26,00,03,11.80
2007,06,26,00,04,11.80
2007,06,26,00,05,11.80
2007,06,26,00,06,11.80
2007,06,26,00,07,11.80
2007,06,26,00,08,11.80
2007,06,26,00,09,11.80
2007,06,26,00,10,11.80
2007,06,26,00,11,11.70
2007,06,26,00,12,11.70
2007,06,26,00,13,11.70
2007,06,26,00,14,11.70
2007,06,26,00,15,11.70
2007,06,26,00,16,11.70
2007,06,26,00,17,11.60
2007,06,26,00,18,11.60
2007,06,26,00,19,11.60
2007,06,26,00,20,11.60
2007,06,26,00,21,11.60
2007,06,26,00,22,11.60
2007,06,26,00,23,11.60
2007,06,26,00,24,11.60
2007,06,26,00,25,11.60
2007,06,26,00,26,11.50
2007,06,26,00,27,11.40
2007,06,26,00,28,11.40
2007,06,26,00,29,11.40
2007,06,26,00,30,11.40
2007,06,26,00,31,11.40
2007,06,26,00,32,11.40
2007,06,26,00,33,11.40
2007,06,26,00,34,11.40
2007,06,26,00,35,11.40
2007,06,26,00,36,11.40
2007,06,26,00,37,11.30
2007,06,26,00,38,11.30
2007,06,26,00,39,11.30
2007,06,26,00,40,11.30
2007,06,26,00,41,11.30
2007,06,26,00,42,11.30
2007,06,26,00,43,11.30
2007,06,26,00,44,11.20
2007,06,26,00,45,11.20
2007,06,26,00,46,11.20
2007,06,26,00,47,11.20
2007,06,26,00,48,11.20
2007,06,26,00,49,11.20
2007,06,26,00,50,11.20
2007,06,26,00,51,11.10
2007,06,26,00,52,11.10
2007,06,26,00,53,11.10
2007,06,26,00,54,11.10
2007,06,26,00,55,11.10
2007,06,26,00,56,11.10
2007,06,26,00,57,11.10
2007,06,26,00,58,11.10
2007,06,26,00,59,11.10
2007,06,26,01,00,11.10
2007,06,26,01,01,11.10
2007,06,26,01,02,11.10
2007,06,26,01,03,11.10
2007,06,26,01,04,11.10
2007,06,26,01,05,11.10
2007,06,26,01,06,11.10
2007,06,26,01,07,11.10
2007,06,26,01,08,11.10
2007,06,26,01,09,11.00
2007,06,26,01,10,10.90
2007,06,26,01,11,10.90
2007,06,26,01,12,10.90
2007,06,26,01,13,10.90
2007,06,26,01,14,10.90
2007,06,26,01,15,10.90
2007,06,26,01,16,10.90
2007,06,26,01,17,10.90
2007,06,26,01,18,10.90
2007,06,26,01,19,10.90
2007,06,26,01,20,10.90
2007,06,26,01,21,10.90
2007,06,26,01,22,10.90
2007,06,26,01,23,10.90
2007,06,26,01,24,10.90
2007,06,26,01,25,10.90
2007,06,26,01,26,10.90
2007,06,26,01,27,10.90
2007,06,26,01,28,10.90
2007,06,26,01,29,10.90
2007,06,26,01,30,10.90
2007,06,26,01,31,10.90
2007,06,26,01,32,10.80
2007,06,26,01,33,10.80
2007,06,26,01,34,10.80
2007,06,26,01,35,10.80
2007,06,26,01,36,10.80
2007,06,26,01,37,10.80
2007,06,26,01,38,10.80
2007,06,26,01,39,10.80
2007,06,26,01,40,10.80
2007,06,26,01,41,10.80
2007,06,26,01,42,10.70
2007,06,26,01,43,10.70
2007,06,26,01,44,10.70
2007,06,26,01,45,10.70
2007,06,26,01,46,10.70
2007,06,26,01,47,10.60
2007,06,26,01,48,10.60
2007,06,26,01,49,10.60
2007,06,26,01,50,10.60
2007,06,26,01,51,10.60
2007,06,26,01,52,10.60
2007,06,26,01,53,10.60
2007,06,26,01,54,10.60
2007,06,26,01,55,10.60
2007,06,26,01,56,10.40
2007,06,26,01,57,10.40
2007,06,26,01,58,10.40
2007,06,26,01,59,10.40
2007,06,26,02,00,10.40
2007,06,26,02,01,10.40
2007,06,26,02,02,10.40
2007,06,26,02,03,10.40
2007,06,26,02,04,10.40
2007,06,26,02,05,10.40
2007,06,26,02,06,10.40
2007,06,26,02,07,10.40
2007,06,26,02,08,10.40
2007,06,26,02,09,10.30
2007,06,26,02,10,10.30
2007,06,26,02,11,10.30
2007,06,26,02,12,10.30
2007,06,26,02,13,10.20
2007,06,26,02,14,10.20
2007,06,26,02,15,10.20
2007,06,26,02,16,10.20
2007,06,26,02,17,10.20
2007,06,26,02,18,10.20
2007,06,26,02,19,10.10
2007,06,26,02,20,10.10
2007,06,26,02,21,10.10
2007,06,26,02,22,10.20
2007,06,26,02,23,10.20
2007,06,26,02,24,10.20
2007,06,26,02,25,10.20
2007,06,26,02,26,10.30
2007,06,26,02,27,10.30
2007,06,26,02,28,10.30
2007,06,26,02,29,10.30
2007,06,26,02,30,10.30
2007,06,26,02,31,10.30
2007,06,26,02,32,10.30
2007,06,26,02,33,10.20
2007,06,26,02,34,10.20
2007,06,26,02,35,10.20
2007,06,26,02,36,10.10
2007,06,26,02,37,10.10
2007,06,26,02,38,10.10
2007,06,26,02,39,10.10
2007,06,26,02,40,10.10
2007,06,26,02,41,10.10
2007,06,26,02,42,10.10
2007,06,26,02,43,10.10
2007,06,26,02,44,10.10
2007,06,26,02,45,10.10
2007,06,26,02,46,10.00
2007,06,26,02,47,9.90
2007,06,26,02,48,9.90
2007,06,26,02,49,9.90
2007,06,26,02,50,9.90
2007,06,26,02,51,9.80
2007,06,26,02,52,9.80
2007,06,26,02,53,9.70
2007,06,26,02,54,9.70
2007,06,26,02,55,9.70
2007,06,26,02,56,9.70
2007,06,26,02,57,9.60
2007,06,26,02,58,9.60
2007,06,26,02,59,9.60
2007,06,26,03,00,9.60
2007,06,26,03,01,9.50
2007,06,26,03,02,9.50
2007,06,26,03,03,9.50
2007,06,26,03,04,9.50
2007,06,26,03,05,9.50
2007,06,26,03,06,9.50
2007,06,26,03,07,9.50
2007,06,26,03,08,9.60
2007,06,26,03,09,9.60
2007,06,26,03,10,9.60
2007,06,26,03,11,9.60
2007,06,26,03,12,9.70
2007,06,26,03,13,9.70
2007,06,26,03,14,9.70
2007,06,26,03,15,9.70
2007,06,26,03,16,9.70
2007,06,26,03,17,9.70
2007,06,26,03,18,9.70
2007,06,26,03,19,9.70
2007,06,26,03,20,9.70
2007,06,26,03,21,9.70
2007,06,26,03,22,9.70
2007,06,26,03,23,9.70
2007,06,26,03,24,9.70
2007,06,26,03,25,9.70
2007,06,26,03,26,9.70
2007,06,26,03,27,9.70
2007,06,26,03,28,9.70
2007,06,26,03,29,9.70
2007,06,26,03,30,9.70
2007,06,26,03,31,9.70
2007,06,26,03,32,9.70
2007,06,26,03,33,9.70
2007,06,26,03,34,9.70
2007,06,26,03,35,9.70
2007,06,26,03,36,9.70
2007,06,26,03,37,9.60
2007,06,26,03,38,9.60
2007,06,26,03,39,9.60
2007,06,26,03,40,9.60
2007,06,26,03,41,9.60
2007,06,26,03,42,9.60
2007,06,26,03,43,9.60
2007,06,26,03,44,9.60
2007,06,26,03,45,9.60
2007,06,26,03,46,9.60
2007,06,26,03,47,9.60
2007,06,26,03,48,9.60
2007,06,26,03,49,9.60
2007,06,26,03,50,9.60
2007,06,26,03,51,9.60
2007,06,26,03,52,9.70
2007,06,26,03,53,9.70
2007,06,26,03,54,9.70
2007,06,26,03,55,9.70
2007,06,26,03,56,9.70
2007,06,26,03,57,9.60
2007,06,26,03,58,9.60
2007,06,26,03,59,9.60
2007,06,26,04,00,9.60
2007,06,26,04,01,9.60
2007,06,26,04,02,9.60
2007,06,26,04,03,9.50
2007,06,26,04,04,9.50
2007,06,26,04,05,9.50
2007,06,26,04,06,9.50
2007,06,26,04,07,9.50
2007,06,26,04,08,9.40
2007,06,26,04,09,9.40
2007,06,26,04,10,9.40
2007,06,26,04,11,9.40
2007,06,26,04,12,9.40
2007,06,26,04,13,9.40
2007,06,26,04,14,9.40
2007,06,26,04,15,9.40
2007,06,26,04,16,9.40
2007,06,26,04,17,9.40
2007,06,26,04,18,9.40
2007,06,26,04,19,9.40
2007,06,26,04,20,9.40
2007,06,26,04,21,9.50
2007,06,26,04,22,9.50
2007,06,26,04,23,9.50
2007,06,26,04,24,9.50
2007,06,26,04,25,9.60
2007,06,26,04,26,9.60
2007,06,26,04,27,9.60
2007,06,26,04,28,9.60
2007,06,26,04,29,9.60
2007,06,26,04,30,9.60
2007,06,26,04,31,9.70
2007,06,26,04,32,9.70
2007,06,26,04,33,9.70
2007,06,26,04,34,9.70
2007,06,26,04,35,9.70
2007,06,26,04,36,9.70
2007,06,26,04,37,9.70
2007,06,26,04,38,9.70
2007,06,26,04,39,9.70
2007,06,26,04,40,9.80
2007,06,26,04,41,9.80
2007,06,26,04,42,9.80
2007,06,26,04,43,9.80
2007,06,26,04,44,9.90
2007,06,26,04,45,9.90
2007,06,26,04,46,9.90
2007,06,26,04,47,9.90
2007,06,26,04,48,9.90
2007,06,26,04,49,9.90
2007,06,26,04,50,9.90
2007,06,26,04,51,9.90
2007,06,26,04,52,9.90
2007,06,26,04,53,9.90
2007,06,26,04,54,9.90
2007,06,26,04,55,9.90
2007,06,26,04,56,9.90
2007,06,26,04,57,9.90
2007,06,26,04,58,9.90
2007,06,26,04,59,9.90
2007,06,26,05,00,9.90
2007,06,26,05,01,9.90
2007,06,26,05,02,9.90
2007,06,26,05,03,9.90
2007,06,26,05,04,9.90
2007,06,26,05,05,9.90
2007,06,26,05,06,9.90
2007,06,26,05,07,9.90
2007,06,26,05,08,10.10
2007,06,26,05,09,10.10
2007,06,26,05,10,10.10
2007,06,26,05,11,10.10
2007,06,26,05,12,10.10
2007,06,26,05,13,10.10
2007,06,26,05,14,10.10
2007,06,26,05,15,10.10
2007,06,26,05,16,10.10
2007,06,26,05,17,10.10
2007,06,26,05,18,10.10
2007,06,26,05,19,10.10
2007,06,26,05,20,10.10
2007,06,26,05,21,10.10
2007,06,26,05,22,10.00
2007,06,26,05,23,9.90
2007,06,26,05,24,9.90
2007,06,26,05,25,9.90
2007,06,26,05,26,9.90
2007,06,26,05,27,9.90
2007,06,26,05,28,9.80
2007,06,26,05,29,9.80
2007,06,26,05,30,9.70
2007,06,26,05,31,9.70
2007,06,26,05,32,9.70
2007,06,26,05,33,9.70
2007,06,26,05,34,9.70
2007,06,26,05,35,9.70
2007,06,26,05,36,9.70
2007,06,26,05,37,9.70
2007,06,26,05,38,9.70
2007,06,26,05,39,9.70
2007,06,26,05,40,9.70
2007,06,26,05,41,9.70
2007,06,26,05,42,9.70
2007,06,26,05,43,9.70
2007,06,26,05,44,9.70
2007,06,26,05,45,9.80
2007,06,26,05,46,9.80
2007,06,26,05,47,9.90
2007,06,26,05,48,10.00
2007,06,26,05,49,10.10
2007,06,26,05,50,10.10
2007,06,26,05,51,10.20
2007,06,26,05,52,10.20
2007,06,26,05,53,10.20
2007,06,26,05,54,10.30
2007,06,26,05,55,10.30
2007,06,26,05,56,10.30
2007,06,26,05,57,10.30
2007,06,26,05,58,10.30
2007,06,26,05,59,10.40
2007,06,26,06,00,10.40
2007,06,26,06,01,10.40
2007,06,26,06,02,10.40
2007,06,26,06,03,10.40
2007,06,26,06,04,10.40
2007,06,26,06,05,10.60
2007,06,26,06,06,10.60
2007,06,26,06,07,10.60
2007,06,26,06,08,10.60
2007,06,26,06,09,10.60
2007,06,26,06,10,10.60
2007,06,26,06,11,10.60
2007,06,26,06,12,10.60
2007,06,26,06,13,10.60
2007,06,26,06,14,10.60
2007,06,26,06,15,10.60
2007,06,26,06,16,10.60
2007,06,26,06,17,10.60
2007,06,26,06,18,10.60
2007,06,26,06,19,10.60
2007,06,26,06,20,10.60
2007,06,26,06,21,10.60
2007,06,26,06,22,10.60
2007,06,26,06,23,10.70
2007,06,26,06,24,10.80
2007,06,26,06,25,10.80
2007,06,26,06,26,10.90
2007,06,26,06,27,10.90
2007,06,26,06,28,11.00
2007,06,26,06,29,11.10
2007,06,26,06,30,11.10
2007,06,26,06,31,11.10
2007,06,26,06,32,11.20
2007,06,26,06,33,11.20
2007,06,26,06,34,11.30
2007,06,26,06,35,11.30
2007,06,26,06,36,11.30
2007,06,26,06,37,11.40
2007,06,26,06,38,11.50
2007,06,26,06,39,11.60
2007,06,26,06,40,11.60
2007,06,26,06,41,11.70
2007,06,26,06,42,11.80
2007,06,26,06,43,11.80
2007,06,26,06,44,11.80
2007,06,26,06,45,11.80
2007,06,26,06,46,11.80
2007,06,26,06,47,11.80
2007,06,26,06,48,11.90
2007,06,26,06,49,11.90
2007,06,26,06,50,11.90
2007,06,26,06,51,11.90
2007,06,26,06,52,12.00
2007,06,26,06,53,12.00
2007,06,26,06,54,12.00
2007,06,26,06,55,12.10
2007,06,26,06,56,12.10
2007,06,26,06,57,12.10
2007,06,26,06,58,12.20
2007,06,26,06,59,12.20
2007,06,26,07,00,12.30
2007,06,26,07,01,12.30
2007,06,26,07,02,12.30
2007,06,26,07,03,12.30
2007,06,26,07,04,12.40
2007,06,26,07,05,12.40
2007,06,26,07,06,12.50
2007,06,26,07,07,12.50
2007,06,26,07,08,12.60
2007,06,26,07,09,12.70
2007,06,26,07,10,12.70
2007,06,26,07,11,12.70
2007,06,26,07,12,12.80
2007,06,26,07,13,12.80
2007,06,26,07,14,12.90
2007,06,26,07,15,12.90
2007,06,26,07,16,13.00
2007,06,26,07,17,13.00
2007,06,26,07,18,13.00
2007,06,26,07,19,13.00
2007,06,26,07,20,13.00
2007,06,26,07,21,13.10
2007,06,26,07,22,13.10
2007,06,26,07,23,13.10
2007,06,26,07,24,13.20
2007,06,26,07,25,13.20
2007,06,26,07,26,13.20
2007,06,26,07,27,13.30
2007,06,26,07,28,13.30
2007,06,26,07,29,13.30
2007,06,26,07,30,13.30
2007,06,26,07,31,13.40
2007,06,26,07,32,13.40
2007,06,26,07,33,13.50
2007,06,26,07,34,13.50
2007,06,26,07,35,13.60
2007,06,26,07,36,13.60
2007,06,26,07,37,13.60
2007,06,26,07,38,13.60
2007,06,26,07,39,13.70
2007,06,26,07,40,13.70
2007,06,26,07,41,13.70
2007,06,26,07,42,13.70
2007,06,26,07,43,13.70
2007,06,26,07,44,13.70
2007,06,26,07,45,13.70
2007,06,26,07,46,13.80
2007,06,26,07,47,13.70
2007,06,26,07,48,13.70
2007,06,26,07,49,13.80
2007,06,26,07,50,13.80
2007,06,26,07,51,13.80
2007,06,26,07,52,13.90
2007,06,26,07,53,13.90
2007,06,26,07,54,13.90
2007,06,26,07,55,13.90
2007,06,26,07,56,13.90
2007,06,26,07,57,13.90
2007,06,26,07,58,14.00
2007,06,26,07,59,14.10
2007,06,26,08,00,14.20
2007,06,26,08,01,14.20
2007,06,26,08,02,14.20
2007,06,26,08,03,14.20
2007,06,26,08,04,14.10
2007,06,26,08,05,14.10
2007,06,26,08,06,14.10
2007,06,26,08,07,14.10
2007,06,26,08,08,14.10
2007,06,26,08,09,14.10
2007,06,26,08,10,14.20
2007,06,26,08,11,14.20
2007,06,26,08,12,14.20
2007,06,26,08,13,14.30
2007,06,26,08,14,14.30
2007,06,26,08,15,14.30
2007,06,26,08,16,14.30
2007,06,26,08,17,14.40
2007,06,26,08,18,14.40
2007,06,26,08,19,14.40
2007,06,26,08,20,14.50
2007,06,26,08,21,14.50
2007,06,26,08,22,14.50
2007,06,26,08,23,14.50
2007,06,26,08,24,14.50
2007,06,26,08,25,14.50
2007,06,26,08,26,14.50
2007,06,26,08,27,14.50
2007,06,26,08,28,14.50
2007,06,26,08,29,14.50
2007,06,26,08,30,14.40
2007,06,26,08,31,14.30
2007,06,26,08,32,14.30
2007,06,26,08,33,14.30
2007,06,26,08,34,14.40
2007,06,26,08,35,14.40
2007,06,26,08,36,14.40
2007,06,26,08,37,14.40
2007,06,26,08,38,14.30
2007,06,26,08,39,14.30
2007,06,26,08,40,14.30
2007,06,26,08,41,14.40
2007,06,26,08,42,14.40
2007,06,26,08,43,14.40
2007,06,26,08,44,14.50
2007,06,26,08,45,14.50
2007,06,26,08,46,14.60
2007,06,26,08,47,14.70
2007,06,26,08,48,14.70
2007,06,26,08,49,14.70
2007,06,26,08,50,14.60
2007,06,26,08,51,14.50
2007,06,26,08,52,14.50
2007,06,26,08,53,14.50
2007,06,26,08,54,14.60
2007,06,26,08,55,14.60
2007,06,26,08,56,14.60
2007,06,26,08,57,14.60
2007,06,26,08,58,14.50
2007,06,26,08,59,14.40
2007,06,26,09,00,14.40
2007,06,26,09,01,14.50
2007,06,26,09,02,14.50
2007,06,26,09,03,14.60
2007,06,26,09,04,14.60
2007,06,26,09,05,14.60
2007,06,26,09,06,14.60
2007,06,26,09,07,14.50
2007,06,26,09,08,14.40
2007,06,26,09,09,14.40
2007,06,26,09,10,14.40
2007,06,26,09,11,14.40
2007,06,26,09,12,14.40
2007,06,26,09,13,14.50
2007,06,26,09,14,14.50
2007,06,26,09,15,14.50
2007,06,26,09,16,14.60
2007,06,26,09,17,14.60
2007,06,26,09,18,14.60
2007,06,26,09,19,14.70
2007,06,26,09,20,14.70
2007,06,26,09,21,14.70
2007,06,26,09,22,14.70
2007,06,26,09,23,14.80
2007,06,26,09,24,14.80
2007,06,26,09,25,14.80
2007,06,26,09,26,14.80
2007,06,26,09,27,14.80
2007,06,26,09,28,14.80
2007,06,26,09,29,14.80
2007,06,26,09,30,14.90
2007,06,26,09,31,14.90
2007,06,26,09,32,14.90
2007,06,26,09,33,14.90
2007,06,26,09,34,14.80
2007,06,26,09,35,14.80
2007,06,26,09,36,14.90
2007,06,26,09,37,14.90
2007,06,26,09,38,14.90
2007,06,26,09,39,14.90
2007,06,26,09,40,14.90
2007,06,26,09,41,15.00
2007,06,26,09,42,15.10
2007,06,26,09,43,15.20
2007,06,26,09,44,15.30
2007,06,26,09,45,15.40
2007,06,26,09,46,15.40
2007,06,26,09,47,15.50
2007,06,26,09,48,15.50
2007,06,26,09,49,15.50
2007,06,26,09,50,15.50
2007,06,26,09,51,15.60
2007,06,26,09,52,15.60
2007,06,26,09,53,15.50
2007,06,26,09,54,15.40
2007,06,26,09,55,15.40
2007,06,26,09,56,15.40
2007,06,26,09,57,15.30
2007,06,26,09,58,15.40
2007,06,26,09,59,15.30
2007,06,26,10,00,15.30
2007,06,26,10,01,15.30
2007,06,26,10,02,15.40
2007,06,26,10,03,15.50
2007,06,26,10,04,15.60
2007,06,26,10,05,15.60
2007,06,26,10,06,15.50
2007,06,26,10,07,15.50
2007,06,26,10,08,15.40
2007,06,26,10,09,15.50
2007,06,26,10,10,15.50
2007,06,26,10,11,15.50
2007,06,26,10,12,15.50
2007,06,26,10,13,15.40
2007,06,26,10,14,15.50
2007,06,26,10,15,15.50
2007,06,26,10,16,15.60
2007,06,26,10,17,15.60
2007,06,26,10,18,15.60
2007,06,26,10,19,15.70
2007,06,26,10,20,15.70
2007,06,26,10,21,15.80
2007,06,26,10,22,15.80
2007,06,26,10,23,15.70
2007,06,26,10,24,15.70
2007,06,26,10,25,15.70
2007,06,26,10,26,15.70
2007,06,26,10,27,15.70
2007,06,26,10,28,15.80
2007,06,26,10,29,15.80
2007,06,26,10,30,15.80
2007,06,26,10,31,15.90
2007,06,26,10,32,15.90
2007,06,26,10,33,15.90
2007,06,26,10,34,15.80
2007,06,26,10,35,15.80
2007,06,26,10,36,15.60
2007,06,26,10,37,15.60
2007,06,26,10,38,15.60
2007,06,26,10,39,15.60
2007,06,26,10,40,15.60
2007,06,26,10,41,15.60
2007,06,26,10,42,15.60
2007,06,26,10,43,15.60
2007,06,26,10,44,15.60
2007,06,26,10,45,15.60
2007,06,26,10,46,15.70
2007,06,26,10,47,15.70
2007,06,26,10,48,15.80
2007,06,26,10,49,15.80
2007,06,26,10,50,15.80
2007,06,26,10,51,15.90
2007,06,26,10,52,15.90
2007,06,26,10,53,15.90
2007,06,26,10,54,15.90
2007,06,26,10,55,16.00
2007,06,26,10,56,16.10
2007,06,26,10,57,16.10
2007,06,26,10,58,16.10
2007,06,26,10,59,16.20
2007,06,26,11,00,16.20
2007,06,26,11,01,16.20
2007,06,26,11,02,16.20
2007,06,26,11,03,16.20
2007,06,26,11,04,16.20
2007,06,26,11,05,16.30
2007,06,26,11,06,16.40
2007,06,26,11,07,16.40
2007,06,26,11,08,16.50
2007,06,26,11,09,16.60
2007,06,26,11,10,16.70
2007,06,26,11,11,16.60
2007,06,26,11,12,16.60
2007,06,26,11,13,16.70
2007,06,26,11,14,16.70
2007,06,26,11,15,16.60
2007,06,26,11,16,16.70
2007,06,26,11,17,16.70
2007,06,26,11,18,16.70
2007,06,26,11,19,16.70
2007,06,26,11,20,16.80
2007,06,26,11,21,16.90
2007,06,26,11,22,16.90
2007,06,26,11,23,17.00
2007,06,26,11,24,17.10
2007,06,26,11,25,17.20
2007,06,26,11,26,17.20
2007,06,26,11,27,17.30
2007,06,26,11,28,17.30
2007,06,26,11,29,17.30
2007,06,26,11,30,17.30
2007,06,26,11,31,17.30
2007,06,26,11,32,17.30
2007,06,26,11,33,17.30
2007,06,26,11,34,17.30
2007,06,26,11,35,17.20
2007,06,26,11,36,17.20
2007,06,26,11,37,17.20
2007,06,26,11,38,17.20
2007,06,26,11,39,17.20
2007,06,26,11,40,17.20
2007,06,26,11,41,17.20
2007,06,26,11,42,17.20
2007,06,26,11,43,17.20
2007,06,26,11,44,17.30
2007,06,26,11,45,17.30
2007,06,26,11,46,17.30
2007,06,26,11,47,17.30
2007,06,26,11,48,17.30
2007,06,26,11,49,17.30
2007,06,26,11,50,17.50
2007,06,26,11,51,17.70
2007,06,26,11,52,17.80
2007,06,26,11,53,17.80
2007,06,26,11,54,17.90
2007,06,26,11,55,18.00
2007,06,26,11,56,18.10
2007,06,26,11,57,18.10
2007,06,26,11,58,18.00
2007,06,26,11,59,17.90
2007,06,26,12,00,17.90
2007,06,26,12,01,17.80
2007,06,26,12,02,17.70
2007,06,26,12,03,17.60
2007,06,26,12,04,17.60
2007,06,26,12,05,17.60
2007,06,26,12,06,17.60
2007,06,26,12,07,17.70
2007,06,26,12,08,17.80
2007,06,26,12,09,17.90
2007,06,26,12,10,17.90
2007,06,26,12,11,17.90
2007,06,26,12,12,17.90
2007,06,26,12,13,18.00
2007,06,26,12,14,18.10
2007,06,26,12,15,18.20
2007,06,26,12,16,18.20
2007,06,26,12,17,18.20
2007,06,26,12,18,18.30
2007,06,26,12,19,18.30
2007,06,26,12,20,18.40
2007,06,26,12,21,18.50
2007,06,26,12,22,18.50
2007,06,26,12,23,18.60
2007,06,26,12,24,18.70
2007,06,26,12,25,18.70
2007,06,26,12,26,18.70
2007,06,26,12,27,18.70
2007,06,26,12,28,18.70
2007,06,26,12,29,18.80
2007,06,26,12,30,18.90
2007,06,26,12,31,18.90
2007,06,26,12,32,18.90
2007,06,26,12,33,18.90
2007,06,26,12,34,19.00
2007,06,26,12,35,19.00
2007,06,26,12,36,18.90
2007,06,26,12,37,18.90
2007,06,26,12,38,18.90
2007,06,26,12,39,18.90
2007,06,26,12,40,19.00
2007,06,26,12,41,19.10
2007,06,26,12,42,19.10
2007,06,26,12,43,19.10
2007,06,26,12,44,19.10
2007,06,26,12,45,19.20
2007,06,26,12,46,19.20
2007,06,26,12,47,19.10
2007,06,26,12,48,19.10
2007,06,26,12,49,19.20
2007,06,26,12,50,19.20
2007,06,26,12,51,19.30
2007,06,26,12,52,19.40
2007,06,26,12,53,19.40
2007,06,26,12,54,19.50
2007,06,26,12,55,19.60
2007,06,26,12,56,19.70
2007,06,26,12,57,19.70
2007,06,26,12,58,19.70
2007,06,26,12,59,19.70
2007,06,26,13,00,19.70
2007,06,26,13,01,19.60
2007,06,26,13,02,19.50
2007,06,26,13,03,19.40
2007,06,26,13,04,19.40
2007,06,26,13,05,19.40
2007,06,26,13,06,19.30
2007,06,26,13,07,19.30
2007,06,26,13,08,19.30
2007,06,26,13,09,19.20
2007,06,26,13,10,19.10
2007,06,26,13,11,19.20
2007,06,26,13,12,19.20
2007,06,26,13,13,19.30
2007,06,26,13,14,19.30
2007,06,26,13,15,19.40
2007,06,26,13,16,19.40
2007,06,26,13,17,19.50
2007,06,26,13,18,19.50
2007,06,26,13,19,19.40
2007,06,26,13,20,19.40
2007,06,26,13,21,19.40
2007,06,26,13,22,19.40
2007,06,26,13,23,19.50
2007,06,26,13,24,19.50
2007,06,26,13,25,19.60
2007,06,26,13,26,19.60
2007,06,26,13,27,19.60
2007,06,26,13,28,19.60
2007,06,26,13,29,19.60
2007,06,26,13,30,19.70
2007,06,26,13,31,19.70
2007,06,26,13,32,19.70
2007,06,26,13,33,19.70
2007,06,26,13,34,19.70
2007,06,26,13,35,19.70
2007,06,26,13,36,19.70
2007,06,26,13,37,19.70
2007,06,26,13,38,19.70
2007,06,26,13,39,19.70
2007,06,26,13,40,19.80
2007,06,26,13,41,19.90
2007,06,26,13,42,19.90
2007,06,26,13,43,20.10
2007,06,26,13,44,20.20
2007,06,26,13,45,20.30
2007,06,26,13,46,20.30
2007,06,26,13,47,20.30
2007,06,26,13,48,20.30
2007,06,26,13,49,20.30
2007,06,26,13,50,20.40
2007,06,26,13,51,20.40
2007,06,26,13,52,20.50
2007,06,26,13,53,20.50
2007,06,26,13,54,20.50
2007,06,26,13,55,20.40
2007,06,26,13,56,20.40
2007,06,26,13,57,20.50
2007,06,26,13,58,20.50
2007,06,26,13,59,20.50
2007,06,26,14,00,20.50
2007,06,26,14,01,20.50
2007,06,26,14,02,20.50
2007,06,26,14,03,20.50
2007,06,26,14,04,20.60
2007,06,26,14,05,20.60
2007,06,26,14,06,20.60
2007,06,26,14,07,20.70
2007,06,26,14,08,20.90
2007,06,26,14,09,21.00
2007,06,26,14,10,21.10
2007,06,26,14,11,21.10
2007,06,26,14,12,21.30
2007,06,26,14,13,21.30
2007,06,26,14,14,21.30
2007,06,26,14,15,21.20
2007,06,26,14,16,21.10
2007,06,26,14,17,21.00
2007,06,26,14,18,21.00
2007,06,26,14,19,21.00
2007,06,26,14,20,21.00
2007,06,26,14,21,20.90
2007,06,26,14,22,21.00
2007,06,26,14,23,21.00
2007,06,26,14,24,21.10
2007,06,26,14,25,21.20
2007,06,26,14,26,21.30
2007,06,26,14,27,21.20
2007,06,26,14,28,21.20
2007,06,26,14,29,21.20
2007,06,26,14,30,21.20
2007,06,26,14,31,21.40
2007,06,26,14,32,21.40
2007,06,26,14,33,21.30
2007,06,26,14,34,21.30
2007,06,26,14,35,21.10
2007,06,26,14,36,21.10
2007,06,26,14,37,21.00
2007,06,26,14,38,21.00
2007,06,26,14,39,21.00
2007,06,26,14,40,20.90
2007,06,26,14,41,20.90
2007,06,26,14,42,20.80
2007,06,26,14,43,20.80
2007,06,26,14,44,20.70
2007,06,26,14,45,20.70
2007,06,26,14,46,20.70
2007,06,26,14,47,20.70
2007,06,26,14,48,20.80
2007,06,26,14,49,20.80
2007,06,26,14,50,20.80
2007,06,26,14,51,20.80
2007,06,26,14,52,20.80
2007,06,26,14,53,20.90
2007,06,26,14,54,20.90
2007,06,26,14,55,21.00
2007,06,26,14,56,21.00
2007,06,26,14,57,20.90
2007,06,26,14,58,20.90
2007,06,26,14,59,20.90
2007,06,26,15,00,20.90
2007,06,26,15,01,21.00
2007,06,26,15,02,21.00
2007,06,26,15,03,21.00
2007,06,26,15,04,21.10
2007,06,26,15,05,21.20
2007,06,26,15,06,21.20
2007,06,26,15,07,21.30
2007,06,26,15,08,21.40
2007,06,26,15,09,21.40
2007,06,26,15,10,21.50
2007,06,26,15,11,21.60
2007,06,26,15,12,21.60
2007,06,26,15,13,21.60
2007,06,26,15,14,21.80
2007,06,26,15,15,21.80
2007,06,26,15,16,21.80
2007,06,26,15,17,21.80
2007,06,26,15,18,21.80
2007,06,26,15,19,21.60
2007,06,26,15,20,21.50
2007,06,26,15,21,21.30
2007,06,26,15,22,21.30
2007,06,26,15,23,21.30
2007,06,26,15,24,21.20
2007,06,26,15,25,21.20
2007,06,26,15,26,21.10
2007,06,26,15,27,21.00
2007,06,26,15,28,21.00
2007,06,26,15,29,21.10
2007,06,26,15,30,21.10
2007,06,26,15,31,21.10
2007,06,26,15,32,21.10
2007,06,26,15,33,21.00
2007,06,26,15,34,20.90
2007,06,26,15,35,20.80
2007,06,26,15,36,20.70
2007,06,26,15,37,20.60
2007,06,26,15,38,20.60
2007,06,26,15,39,20.50
2007,06,26,15,40,20.50
2007,06,26,15,41,20.40
2007,06,26,15,42,20.40
2007,06,26,15,43,20.40
2007,06,26,15,44,20.40
2007,06,26,15,45,20.40
2007,06,26,15,46,20.50
2007,06,26,15,47,20.50
2007,06,26,15,48,20.50
2007,06,26,15,49,20.40
2007,06,26,15,50,20.40
2007,06,26,15,51,20.40
2007,06,26,15,52,20.40
2007,06,26,15,53,20.40
2007,06,26,15,54,20.40
2007,06,26,15,55,20.40
2007,06,26,15,56,20.40
2007,06,26,15,57,20.40
2007,06,26,15,58,20.40
2007,06,26,15,59,20.40
2007,06,26,16,00,20.40
2007,06,26,16,01,20.30
2007,06,26,16,02,20.30
2007,06,26,16,03,20.30
2007,06,26,16,04,20.40
2007,06,26,16,05,20.40
2007,06,26,16,06,20.40
2007,06,26,16,07,20.40
2007,06,26,16,08,20.40
2007,06,26,16,09,20.40
2007,06,26,16,10,20.40
2007,06,26,16,11,20.50
2007,06,26,16,12,20.50
2007,06,26,16,13,20.60
2007,06,26,16,14,20.60
2007,06,26,16,15,20.60
2007,06,26,16,16,20.60
2007,06,26,16,17,20.60
2007,06,26,16,18,20.60
2007,06,26,16,19,20.60
2007,06,26,16,20,20.60
2007,06,26,16,21,20.60
2007,06,26,16,22,20.60
2007,06,26,16,23,20.60
2007,06,26,16,24,20.60
2007,06,26,16,25,20.70
2007,06,26,16,26,20.70
2007,06,26,16,27,20.70
2007,06,26,16,28,20.60
2007,06,26,16,29,20.70
2007,06,26,16,30,20.70
2007,06,26,16,31,20.60
2007,06,26,16,32,20.60
2007,06,26,16,33,20.60
2007,06,26,16,34,20.60
2007,06,26,16,35,20.60
2007,06,26,16,36,20.60
2007,06,26,16,37,20.70
2007,06,26,16,38,20.70
2007,06,26,16,39,20.60
2007,06,26,16,40,20.60
2007,06,26,16,41,20.60
2007,06,26,16,42,20.60
2007,06,26,16,43,20.50
2007,06,26,16,44,20.50
2007,06,26,16,45,20.50
2007,06,26,16,46,20.50
2007,06,26,16,47,20.50
2007,06,26,16,48,20.50
2007,06,26,16,49,20.50
2007,06,26,16,50,20.50
2007,06,26,16,51,20.50
2007,06,26,16,52,20.60
2007,06,26,16,53,20.60
2007,06,26,16,54,20.70
2007,06,26,16,55,20.70
2007,06,26,16,56,20.70
2007,06,26,16,57,20.80
2007,06,26,16,58,20.80
2007,06,26,16,59,20.80
2007,06,26,17,00,20.70
2007,06,26,17,01,20.70
2007,06,26,17,02,20.70
2007,06,26,17,03,20.70
2007,06,26,17,04,20.70
2007,06,26,17,05,20.60
2007,06,26,17,06,20.60
2007,06,26,17,07,20.60
2007,06,26,17,08,20.60
2007,06,26,17,09,20.60
2007,06,26,17,10,20.60
2007,06,26,17,11,20.70
2007,06,26,17,12,20.70
2007,06,26,17,13,20.70
2007,06,26,17,14,20.70
2007,06,26,17,15,20.70
2007,06,26,17,16,20.80
2007,06,26,17,17,20.80
2007,06,26,17,18,20.80
2007,06,26,17,19,20.80
2007,06,26,17,20,20.80
2007,06,26,17,21,20.70
2007,06,26,17,22,20.70
2007,06,26,17,23,20.70
2007,06,26,17,24,20.70
2007,06,26,17,25,20.70
2007,06,26,17,26,20.70